Content
SEND FEEDBACK

Daily
Averages
Monthly
Summary
United States of America

ST. LOUIS, MISSOURI


Home > North America > United States > Missouri
Elevation: 163 meters     Latitude: 38 45N     Longitude: 090 22W

WEATHER
 
SELECT A DAY
Number of Records: 196,268;   Date Range: 1/1/95 - 7/20/14
 
SHARE

PRINT THIS DATA

[ ← Previous Day ]
WEATHER ALMANAC - 23 JULY, 2013
[ Next Day → ]
[ °F ]   °C
Weather ElementAverageHighLow
Temperature27.8 °C33.3 °C (3:54 pm)23.3 °C (5:54 am)
Dewpoint20.2 °C21.7 °C (1:54 am)17.2 °C (11:54 pm)
Humidity64.7 %85 % (2:54 am)44 % (3:54 pm)
Barometer1009.5 hPa1011.9 hPa (11:54 pm)1006.4 hPa (4:54 am)
Wind Speed10.5 km/h16.7 km/h (1:54 pm)
Wind Gust29.6 km/h (3:54 pm)
Weather ElementAverage
Visibility16.1 km
Wind DirectionSSE (163.3 °)

Weather ElementTotal
Precipitation---
Cooling Degree Days9.9 (Base 18.3)
Growing Degree Days18.3 (Base 10)
Averaged from 24 records on 23 July, 2013
WEATHER CONDITIONS BREAKOUT
WIND DIRECTION BREAKOUT
WEATHER BY HOUR - 23 JULY, 2013
[ °F ]   °C
Local TimeTemperatureDewpointHumidityBarometerVisibilityWind DirectionWind SpeedGust SpeedPrecipitationEventsConditions
1:54 AM25 °C21.7 °C82 %1009.5 hPa16.1 kmWSW (250°)9.3 km/hClear
2:54 AM24.4 °C21.7 °C85 %1009.5 hPa16.1 kmCalmThunderstormClear
3:38 AM25 °C21 °C78 %1009.8 hPa16.1 kmWest (270°)9.3 km/hPartly Cloudy
3:54 AM25 °C20.6 °C76 %1007.5 hPa16.1 kmSW (220°)7.4 km/hPartly Cloudy
4:54 AM25 °C20 °C74 %1006.4 hPa16.1 kmWNW (290°)5.6 km/hClear
5:54 AM23.3 °C20.6 °C85 %1008.1 hPa16.1 kmWSW (250°)9.3 km/hMostly Cloudy
6:54 AM23.9 °C20.6 °C82 %1008.8 hPa16.1 kmCalmMostly Cloudy
7:54 AM24.4 °C20.6 °C79 %1009.5 hPa16.1 kmCalmClear
8:54 AM26.7 °C20.6 °C69 %1009.5 hPa16.1 kmWSW (250°)11.1 km/hScattered Clouds
9:54 AM28.3 °C21.1 °C65 %1009.8 hPa16.1 kmWest (260°)11.1 km/hScattered Clouds
10:54 AM29.4 °C21.7 °C63 %1010.2 hPa16.1 kmWSW (240°)13 km/hScattered Clouds
11:54 AM31.1 °C21.7 °C57 %1009.8 hPa16.1 kmVariable9.3 km/hScattered Clouds
12:54 PM31.7 °C21.7 °C55 %1009.8 hPa16.1 kmNW (310°)14.8 km/hScattered Clouds
1:54 PM32.8 °C21.7 °C52 %1009.5 hPa16.1 kmNNW (330°)16.7 km/h25.9 km/hPartly Cloudy
2:54 PM32.8 °C21.1 °C50 %1008.8 hPa16.1 kmNNW (340°)13 km/hScattered Clouds
3:54 PM33.3 °C19.4 °C44 %1008.8 hPa16.1 kmNorth (350°)13 km/h29.6 km/hScattered Clouds
4:54 PM32.2 °C20 °C48 %1008.5 hPa16.1 kmNNE (30°)14.8 km/hScattered Clouds
5:54 PM31.7 °C20 °C50 %1008.1 hPa16.1 kmNorth (360°)16.7 km/hScattered Clouds
6:54 PM30 °C18.9 °C51 %1008.8 hPa16.1 kmNNE (30°)9.3 km/hClear
7:54 PM28.9 °C18.9 °C55 %1009.5 hPa16.1 kmNNE (20°)16.7 km/hClear
8:54 PM27.2 °C17.8 °C56 %1010.2 hPa16.1 kmNNE (20°)16.7 km/hMostly Cloudy
9:54 PM26.1 °C18.3 °C62 %1011.5 hPa16.1 kmNNE (30°)11.1 km/hMostly Cloudy
10:54 PM25 °C18.3 °C66 %1011.5 hPa16.1 kmNE (40°)7.4 km/hMostly Cloudy
11:54 PM23.3 °C17.2 °C68 %1011.9 hPa16.1 kmNNE (30°)13 km/hClear
Hourly data recorded from KSUS, located 0 kilometers away from St. Louis, Missouri







STORIES FROM OUR PARTNERS